Columbia Owens, SC

9:10 AM EST on December 06, 2019 (GMT -0500)
Columbia Owens Downtown

Weather History for KCUB - November, 2019

Change the Weather History Date:

Monday, November 18, 2019

  Actual Average Record
Temperature  
Mean Temperature 49 °F 55 °F  
Max Temperature 53 °F 67 °F 84 °F (2013)
Min Temperature 45 °F 44 °F 27 °F (2014)
Degree Days  
Heating Degree Days 16 10  
Month to date heating degree days 246 143  
Since 1 July heating degree days 274 232  
Cooling Degree Days 0 0  
Month to date cooling degree days 0 11  
Year to date cooling degree days 2833 2253  
Moisture  
Dew Point 44 °F    
Average Humidity 88    
Maximum Humidity 93    
Minimum Humidity 66    
Precipitation  
Precipitation 0.19 in 0.11 in 0.71 in (2015)
Month to date precipitation 2.20 1.72  
Year to date precipitation 29.93 40.93  
Sea Level Pressure  
Sea Level Pressure 29.86 in    
Wind  
Wind Speed 1 mph (WSW)    
Max Wind Speed 7 mph    
Max Gust Speed 12 mph    
Visibility 6 miles    
Events Rain    
T = Trace of Precipitation, MM = Missing Value Source: NWS Daily Summary

Daily Weather History Graph

Daily Weather History Graph

Search for Another Location

Airport or City:

Astronomy

Nov. 18, 2019 Rise Set
Actual Time 6:59 AM EST 5:18 PM EST
Civil Twilight 6:32 AM EST 5:45 PM EST
Nautical Twilight 6:02 AM EST 6:15 PM EST
Astronomical Twilight 5:32 AM EST 6:45 PM EST
Moon 11:02 PM EST (11/18) 12:27 PM EST (11/18)
Length of Visible Light 11h 13m
Length of Day
10h 19m
Waning Gibbous, 63% of the Moon is Illuminated
Nov 18
Waning Gibbous
Nov 19
Last Quarter
Nov 26
New
Dec 4
First Quarter
Dec 12
Full

Hourly Weather History & Observations

Time (EST) Temp. Windchill Dew Point Humidity Pressure Visibility Wind Dir Wind Speed Gust Speed Precip Events Conditions
12:53 AM 50.0 °F - 39.0 °F 66% 29.89 in 10.0 mi Variable 4.6 mph - N/A   Mostly Cloudy
1:53 AM 48.9 °F - 39.0 °F 69% 29.88 in 10.0 mi Calm Calm - N/A   Overcast
2:53 AM 48.9 °F - 39.0 °F 69% 29.88 in 10.0 mi Calm Calm - N/A   Overcast
3:53 AM 46.0 °F - 42.1 °F 86% 29.86 in 10.0 mi Calm Calm - 0.00 in   Overcast
4:14 AM 46.0 °F 44.8 °F 42.1 °F 86% 29.87 in 10.0 mi NW 3.5 mph - N/A   Overcast
4:53 AM 46.9 °F - 42.1 °F 83% 29.86 in 10.0 mi Calm Calm - N/A   Overcast
5:53 AM 46.0 °F - 42.1 °F 86% 29.88 in 10.0 mi Calm Calm - N/A   Overcast
6:53 AM 45.0 °F 43.5 °F 42.1 °F 90% 29.90 in 4.0 mi SSW 3.5 mph - 0.03 in Rain Rain
7:03 AM 45.0 °F - 43.0 °F 93% 29.90 in 3.0 mi Calm Calm - 0.02 in Rain Rain
7:12 AM 45.0 °F 43.5 °F 42.1 °F 90% 29.91 in 4.0 mi WSW 3.5 mph - 0.03 in Rain Rain
7:38 AM 45.0 °F - 43.0 °F 93% 29.91 in 1.8 mi Calm Calm - 0.05 in Rain Rain
7:53 AM 46.0 °F - 44.1 °F 93% 29.91 in 1.8 mi Calm Calm - 0.06 in Rain Light Rain
8:11 AM 46.0 °F - 44.1 °F 93% 29.90 in 2.0 mi Calm Calm - 0.02 in Rain Light Rain
8:25 AM 45.0 °F - 43.0 °F 93% 29.89 in 2.0 mi Calm Calm - 0.03 in Rain Rain
8:27 AM 45.0 °F - 43.0 °F 93% 29.89 in 1.5 mi Calm Calm - 0.04 in Rain Rain
8:35 AM 45.0 °F - 43.0 °F 93% 29.89 in 1.2 mi Calm Calm - 0.06 in Rain Light Rain
8:43 AM 45.0 °F - 43.0 °F 93% 29.90 in 3.0 mi Calm Calm - 0.06 in Rain Light Rain
8:46 AM 45.0 °F - 44.1 °F 97% 29.90 in 2.5 mi Calm Calm - 0.06 in Rain Light Rain
8:53 AM 46.0 °F - 44.1 °F 93% 29.90 in 1.5 mi Calm Calm - 0.07 in Rain Light Rain
9:21 AM 46.9 °F - 44.1 °F 90% 29.90 in 2.0 mi Calm Calm - 0.02 in Rain Light Rain
9:25 AM 46.0 °F - 44.1 °F 93% 29.90 in 3.0 mi Calm Calm - 0.02 in Rain Light Rain
9:37 AM 46.0 °F - 44.1 °F 93% 29.90 in 2.0 mi Calm Calm - 0.02 in Rain Light Rain
9:45 AM 46.9 °F - 44.1 °F 90% 29.90 in 4.0 mi Calm Calm - 0.03 in   Overcast
9:49 AM 46.4 °F - 44.6 °F 93% 29.90 in 5.0 mi Calm Calm - 0.03 in   Overcast
9:53 AM 46.9 °F - 44.1 °F 90% 29.90 in 6.0 mi Calm Calm - 0.03 in   Overcast
10:07 AM 46.9 °F - 44.1 °F 90% 29.90 in 6.0 mi Calm Calm - N/A   Overcast
10:15 AM 46.9 °F - 44.1 °F 90% 29.90 in 2.5 mi Calm Calm - N/A   Overcast
10:25 AM 46.9 °F - 44.1 °F 90% 29.90 in 3.0 mi Calm Calm - N/A   Overcast
10:53 AM 48.0 °F - 44.1 °F 86% 29.88 in 10.0 mi Variable 3.5 mph - N/A   Overcast
11:53 AM 48.0 °F - 44.1 °F 86% 29.86 in 10.0 mi WSW 4.6 mph - N/A   Overcast
12:53 PM 50.0 °F - 44.1 °F 80% 29.82 in 10.0 mi Calm Calm - N/A   Overcast
1:53 PM 51.1 °F - 45.0 °F 80% 29.80 in 10.0 mi West 3.5 mph - N/A   Overcast
2:53 PM 52.0 °F - 46.0 °F 80% 29.79 in 10.0 mi Calm Calm - N/A   Overcast
3:53 PM 52.0 °F - 46.9 °F 83% 29.79 in 10.0 mi Calm Calm - N/A   Overcast
4:20 PM 53.1 °F - 46.9 °F 80% 29.79 in 10.0 mi Calm Calm - N/A   Overcast
4:37 PM 53.1 °F - 46.9 °F 80% 29.79 in 10.0 mi Calm Calm - N/A   Overcast
4:53 PM 53.1 °F - 46.9 °F 80% 29.78 in 10.0 mi Calm Calm - N/A   Overcast
5:12 PM 52.0 °F - 46.9 °F 83% 29.79 in 10.0 mi Calm Calm - N/A   Overcast
5:53 PM 50.0 °F - 46.9 °F 89% 29.79 in 10.0 mi Calm Calm - N/A   Mostly Cloudy
6:17 PM 48.9 °F - 46.0 °F 90% 29.80 in 9.0 mi Calm Calm - N/A   Partly Cloudy
6:53 PM 48.0 °F - 45.0 °F 89% 29.81 in 8.0 mi Calm Calm - N/A   Partly Cloudy
7:53 PM 46.0 °F - 43.0 °F 89% 29.81 in 7.0 mi Calm Calm - N/A   Clear
8:53 PM 45.0 °F - 43.0 °F 93% 29.82 in 5.0 mi Calm Calm - N/A   Clear
10:03 PM 46.0 °F - 43.0 °F 89% 29.82 in 7.0 mi Calm Calm - N/A   Scattered Clouds
10:34 PM 46.0 °F - 44.1 °F 93% 29.82 in 0.8 mi Calm Calm - N/A   Overcast
10:53 PM 46.0 °F - 45.0 °F 96% 29.82 in 0.8 mi Calm Calm - N/A   Mist
11:13 PM 46.0 °F - 45.0 °F 96% 29.81 in 1.0 mi Calm Calm - N/A   Overcast
11:23 PM 46.9 °F - 45.0 °F 93% 29.81 in 1.2 mi Calm Calm - N/A   Overcast
11:53 PM 46.9 °F - 45.0 °F 93% 29.81 in 1.0 mi Calm Calm - N/A   Overcast